| time (UTC) | temp F | wind direction | speed knots | gust knots | rain 1hr in | rain 24hr in | rain mn in | humidity % | barometer mb |
| 20260506033533 | 68 | 226 | 0.0 | 4.3 | 0.00 | 0.02 | 0.02 | 61 | 1009.2 |
| 20260506033049 | 69 | 105 | 0.0 | 4.3 | 0.00 | 0.02 | 0.02 | 60 | 1009.1 |
| 20260506032532 | 70 | 90 | 0.0 | 6.1 | 0.00 | 0.02 | 0.02 | 58 | 1009.0 |
| 20260506032032 | 70 | 128 | 0.9 | 6.1 | 0.00 | 0.02 | 0.02 | 57 | 1009.0 |
| 20260506031551 | 71 | 266 | 0.9 | 6.1 | 0.00 | 0.02 | 0.02 | 56 | 1009.0 |
| 20260506031035 | 71 | 291 | 0.0 | 4.3 | 0.00 | 0.02 | 0.02 | 56 | 1009.0 |
| 20260506030531 | 71 | 297 | 0.0 | 4.3 | 0.00 | 0.02 | 0.02 | 56 | 1008.9 |
| 20260506030052 | 71 | 307 | 0.0 | 4.3 | 0.00 | 0.02 | 0.02 | 55 | 1009.0 |
| 20260506025532 | 71 | 0 | 0.9 | 3.5 | 0.00 | 0.02 | 0.02 | 55 | 1008.9 |
| 20260506025036 | 71 | 274 | 0.0 | 3.5 | 0.00 | 0.02 | 0.02 | 54 | 1008.8 |
| 20260506024558 | 72 | 332 | 0.9 | 3.5 | 0.00 | 0.02 | 0.02 | 53 | 1008.9 |
| 20260506024032 | 72 | 103 | 0.0 | 4.3 | 0.00 | 0.02 | 0.02 | 53 | 1009.0 |
| 20260506023536 | 72 | 76 | 0.9 | 6.1 | 0.00 | 0.02 | 0.02 | 53 | 1009.0 |
| 20260506023045 | 72 | 44 | 0.9 | 6.1 | 0.00 | 0.02 | 0.02 | 52 | 1009.0 |
| 20260506022532 | 72 | 266 | 0.9 | 6.1 | 0.00 | 0.02 | 0.02 | 52 | 1009.0 |
| 20260506022034 | 72 | 332 | 0.9 | 5.2 | 0.00 | 0.02 | 0.02 | 52 | 1008.9 |
| 20260506021601 | 72 | 311 | 0.9 | 5.2 | 0.00 | 0.02 | 0.02 | 52 | 1008.9 |
| 20260506021033 | 72 | 115 | 0.9 | 7.8 | 0.00 | 0.02 | 0.02 | 52 | 1008.9 |
| 20260506020533 | 73 | 101 | 1.7 | 7.8 | 0.00 | 0.02 | 0.02 | 53 | 1008.9 |
| 20260506020040 | 72 | 11 | 0.9 | 4.3 | 0.00 | 0.02 | 0.02 | 53 | 1008.8 |
| 20260506015532 | 73 | 0 | 0.9 | 4.3 | 0.00 | 0.02 | 0.02 | 52 | 1008.8 |
| 20260506015034 | 73 | 0 | 0.0 | 5.2 | 0.00 | 0.02 | 0.02 | 53 | 1008.8 |
| 20260506014545 | 73 | 0 | 0.9 | 5.2 | 0.00 | 0.02 | 0.02 | 52 | 1008.6 |
| 20260506014040 | 73 | 167 | 0.9 | 5.2 | 0.00 | 0.02 | 0.02 | 52 | 1008.7 |
| 20260506013532 | 73 | 0 | 0.9 | 6.1 | 0.00 | 0.02 | 0.02 | 51 | 1008.5 |
| 20260506013055 | 73 | 113 | 1.7 | 6.1 | 0.00 | 0.02 | 0.02 | 51 | 1008.4 |
| 20260506012533 | 73 | 150 | 1.7 | 6.1 | 0.00 | 0.02 | 0.02 | 51 | 1008.3 |
| 20260506012033 | 73 | 103 | 0.9 | 3.5 | 0.00 | 0.02 | 0.02 | 51 | 1008.3 |
| 20260506011601 | 73 | 87 | 0.0 | 2.6 | 0.00 | 0.02 | 0.02 | 51 | 1008.2 |
| 20260506011033 | 73 | 0 | 0.0 | 2.6 | 0.00 | 0.02 | 0.02 | 49 | 1008.3 |
| 20260506010532 | 74 | 79 | 0.0 | 2.6 | 0.00 | 0.02 | 0.02 | 49 | 1008.2 |
| 20260506010054 | 74 | 0 | 0.9 | 6.1 | 0.00 | 0.02 | 0.02 | 48 | 1008.1 |
| 20260506005533 | 75 | 164 | 0.9 | 6.1 | 0.00 | 0.02 | 0.02 | 47 | 1008.1 |
| 20260506005032 | 75 | 88 | 1.7 | 6.1 | 0.00 | 0.02 | 0.02 | 47 | 1008.1 |
| 20260506004546 | 74 | 103 | 0.9 | 6.1 | 0.00 | 0.02 | 0.02 | 47 | 1008.0 |
| 20260506004033 | 75 | 77 | 0.9 | 4.3 | 0.00 | 0.02 | 0.02 | 46 | 1008.0 |
| 20260506003535 | 75 | 98 | 0.9 | 4.3 | 0.00 | 0.02 | 0.02 | 47 | 1007.9 |
| 20260506003105 | 75 | 139 | 0.9 | 4.3 | 0.00 | 0.02 | 0.02 | 46 | 1007.8 |
| 20260506002535 | 75 | 213 | 0.9 | 4.3 | 0.00 | 0.02 | 0.02 | 46 | 1007.7 |
| 20260506002032 | 75 | 197 | 0.9 | 4.3 | 0.00 | 0.02 | 0.02 | 45 | 1007.6 |
| 20260506001550 | 75 | 153 | 0.9 | 4.3 | 0.00 | 0.02 | 0.02 | 45 | 1007.7 |
| 20260506001034 | 76 | 345 | 0.9 | 3.5 | 0.00 | 0.02 | 0.02 | 44 | 1007.6 |
| 20260506000533 | 76 | 0 | 0.9 | 3.5 | 0.00 | 0.02 | 0.02 | 44 | 1007.6 |
| 20260506000049 | 76 | 30 | 0.9 | 5.2 | 0.00 | 0.02 | 0.02 | 43 | 1007.6 |
| 20260505235535 | 76 | 330 | 0.9 | 6.1 | 0.00 | 0.02 | 0.02 | 43 | 1007.6 |
| 20260505235035 | 77 | 61 | 0.9 | 6.1 | 0.00 | 0.02 | 0.02 | 43 | 1007.4 |
| 20260505234545 | 77 | 0 | 0.9 | 6.1 | 0.00 | 0.02 | 0.02 | 43 | 1007.5 |
| 20260505234034 | 77 | 311 | 1.7 | 8.7 | 0.00 | 0.02 | 0.02 | 43 | 1007.4 |
| 20260505233534 | 77 | 148 | 1.7 | 8.7 | 0.00 | 0.02 | 0.02 | 42 | 1007.4 |
| 20260505233046 | 77 | 70 | 0.9 | 7.8 | 0.00 | 0.02 | 0.02 | 43 | 1007.5 |
| 20260505232532 | 78 | 196 | 1.7 | 7.8 | 0.00 | 0.02 | 0.02 | 42 | 1007.3 |
| 20260505232041 | 78 | 189 | 2.6 | 7.8 | 0.00 | 0.02 | 0.02 | 42 | 1007.4 |
| 20260505231557 | 78 | 121 | 0.9 | 6.1 | 0.00 | 0.02 | 0.02 | 43 | 1007.3 |
| 20260505231034 | 78 | 101 | 0.9 | 5.2 | 0.00 | 0.02 | 0.02 | 43 | 1007.2 |
| 20260505230533 | 79 | 341 | 0.9 | 5.2 | 0.00 | 0.02 | 0.02 | 42 | 1007.2 |
| 20260505230050 | 79 | 138 | 1.7 | 7.0 | 0.00 | 0.02 | 0.02 | 41 | 1007.1 |
| 20260505225536 | 80 | 223 | 2.6 | 10.4 | 0.00 | 0.02 | 0.02 | 39 | 1007.1 |
| 20260505225033 | 80 | 237 | 2.6 | 10.4 | 0.00 | 0.02 | 0.02 | 40 | 1007.1 |
| 20260505224549 | 80 | 10 | 1.7 | 10.4 | 0.00 | 0.02 | 0.02 | 40 | 1007.0 |
| 20260505224036 | 79 | 164 | 2.6 | 10.4 | 0.00 | 0.02 | 0.02 | 40 | 1006.9 |
| 20260505223533 | 79 | 103 | 3.5 | 13.9 | 0.00 | 0.02 | 0.02 | 41 | 1007.2 |
| 20260505223047 | 80 | 276 | 2.6 | 13.9 | 0.00 | 0.02 | 0.02 | 41 | 1007.0 |
| 20260505222533 | 80 | 188 | 3.5 | 12.2 | 0.00 | 0.02 | 0.02 | 40 | 1007.0 |
| 20260505222033 | 80 | 261 | 2.6 | 10.4 | 0.00 | 0.02 | 0.02 | 41 | 1006.9 |
| 20260505221543 | 80 | 292 | 3.5 | 10.4 | 0.00 | 0.02 | 0.02 | 41 | 1006.8 |
| 20260505221031 | 79 | 103 | 1.7 | 13.0 | 0.00 | 0.02 | 0.02 | 41 | 1006.8 |
| 20260505220533 | 80 | 135 | 2.6 | 13.0 | 0.00 | 0.02 | 0.02 | 41 | 1006.8 |
| 20260505220043 | 80 | 182 | 3.5 | 9.6 | 0.00 | 0.02 | 0.02 | 39 | 1006.9 |
| 20260505215534 | 81 | 32 | 2.6 | 9.6 | 0.00 | 0.02 | 0.02 | 39 | 1007.0 |
| 20260505215033 | 81 | 99 | 3.5 | 7.8 | 0.00 | 0.02 | 0.02 | 40 | 1006.8 |
| 20260505214606 | 82 | 297 | 2.6 | 13.0 | 0.00 | 0.02 | 0.02 | 39 | 1007.0 |
| 20260505214031 | 82 | 359 | 3.5 | 13.0 | 0.00 | 0.02 | 0.02 | 39 | 1006.8 |
| 20260505213531 | 82 | 51 | 2.6 | 10.4 | 0.00 | 0.02 | 0.02 | 38 | 1006.8 |
| 20260505213046 | 82 | 114 | 4.3 | 10.4 | 0.00 | 0.02 | 0.02 | 39 | 1006.9 |
| 20260505212533 | 82 | 198 | 1.7 | 10.4 | 0.00 | 0.02 | 0.02 | 39 | 1006.9 |
| 20260505212033 | 82 | 143 | 3.5 | 10.4 | 0.00 | 0.02 | 0.02 | 41 | 1006.7 |
| 20260505211549 | 82 | 102 | 2.6 | 13.0 | 0.00 | 0.02 | 0.02 | 39 | 1006.7 |
| 20260505211033 | 82 | 220 | 5.2 | 13.0 | 0.00 | 0.02 | 0.02 | 39 | 1006.7 |
| 20260505210532 | 83 | 79 | 2.6 | 10.4 | 0.00 | 0.02 | 0.02 | 37 | 1006.6 |
| 20260505210047 | 83 | 259 | 3.5 | 11.3 | 0.00 | 0.02 | 0.02 | 38 | 1006.6 |
| 20260505205532 | 83 | 174 | 2.6 | 11.3 | 0.00 | 0.02 | 0.02 | 38 | 1006.6 |
| 20260505205033 | 83 | 221 | 1.7 | 9.6 | 0.00 | 0.02 | 0.02 | 40 | 1006.6 |
| 20260505204547 | 83 | 277 | 4.3 | 16.5 | 0.00 | 0.02 | 0.02 | 38 | 1006.4 |
| 20260505204032 | 83 | 115 | 4.3 | 16.5 | 0.00 | 0.02 | 0.02 | 36 | 1006.4 |
| 20260505203532 | 84 | 243 | 2.6 | 13.0 | 0.00 | 0.02 | 0.02 | 37 | 1006.3 |
| 20260505203049 | 84 | 106 | 2.6 | 13.0 | 0.00 | 0.02 | 0.02 | 38 | 1006.5 |
| 20260505202533 | 83 | 254 | 3.5 | 13.0 | 0.00 | 0.02 | 0.02 | 38 | 1006.5 |
| 20260505202033 | 83 | 200 | 2.6 | 11.3 | 0.00 | 0.02 | 0.02 | 39 | 1006.4 |
| 20260505201546 | 83 | 103 | 2.6 | 7.8 | 0.00 | 0.02 | 0.02 | 38 | 1006.6 |
| 20260505201032 | 83 | 114 | 3.5 | 13.0 | 0.00 | 0.02 | 0.02 | 37 | 1006.5 |
| 20260505200532 | 83 | 153 | 3.5 | 13.0 | 0.00 | 0.02 | 0.02 | 38 | 1006.8 |
| 20260505200056 | 83 | 264 | 3.5 | 13.0 | 0.00 | 0.02 | 0.02 | 38 | 1006.7 |
| 20260505195534 | 83 | 167 | 2.6 | 13.0 | 0.00 | 0.02 | 0.02 | 36 | 1006.6 |
| 20260505195036 | 83 | 290 | 3.5 | 13.0 | 0.00 | 0.02 | 0.02 | 37 | 1006.6 |
| 20260505194541 | 83 | 139 | 4.3 | 13.0 | 0.00 | 0.02 | 0.02 | 37 | 1006.7 |
| 20260505194032 | 83 | 141 | 3.5 | 11.3 | 0.00 | 0.02 | 0.02 | 38 | 1006.8 |
| 20260505193532 | 84 | 166 | 3.5 | 11.3 | 0.00 | 0.02 | 0.02 | 36 | 1006.7 |
| 20260505193050 | 84 | 170 | 3.5 | 7.8 | 0.00 | 0.02 | 0.02 | 37 | 1006.7 |
| 20260505192533 | 84 | 293 | 2.6 | 7.8 | 0.00 | 0.02 | 0.02 | 35 | 1006.7 |
| 20260505192032 | 84 | 145 | 1.7 | 12.2 | 0.00 | 0.02 | 0.02 | 36 | 1006.7 |
| 20260505191546 | 84 | 152 | 4.3 | 12.2 | 0.00 | 0.02 | 0.02 | 35 | 1006.7 |
| 20260505191032 | 84 | 149 | 2.6 | 12.2 | 0.00 | 0.02 | 0.02 | 37 | 1006.7 |
| 20260505190534 | 84 | 91 | 3.5 | 12.2 | 0.00 | 0.02 | 0.02 | 37 | 1006.8 |
| 20260505190047 | 84 | 248 | 3.5 | 11.3 | 0.00 | 0.02 | 0.02 | 36 | 1007.2 |
| 20260505185531 | 84 | 61 | 3.5 | 11.3 | 0.00 | 0.02 | 0.02 | 37 | 1007.0 |
| 20260505185035 | 84 | 172 | 3.5 | 16.5 | 0.00 | 0.02 | 0.02 | 39 | 1007.1 |
| 20260505184548 | 84 | 349 | 3.5 | 16.5 | 0.00 | 0.02 | 0.02 | 37 | 1007.1 |
| 20260505184033 | 84 | 58 | 4.3 | 14.8 | 0.00 | 0.02 | 0.02 | 37 | 1007.5 |
| 20260505183534 | 84 | 260 | 2.6 | 7.8 | 0.00 | 0.02 | 0.02 | 40 | 1007.3 |
| 20260505183057 | 84 | 61 | 0.9 | 10.4 | 0.00 | 0.02 | 0.02 | 39 | 1007.4 |
| 20260505182533 | 84 | 288 | 3.5 | 10.4 | 0.00 | 0.02 | 0.02 | 38 | 1007.4 |
| 20260505182035 | 84 | 186 | 2.6 | 10.4 | 0.00 | 0.02 | 0.02 | 40 | 1007.4 |
| 20260505181546 | 83 | 112 | 2.6 | 13.9 | 0.00 | 0.02 | 0.02 | 38 | 1007.5 |
| 20260505181031 | 83 | 254 | 3.5 | 13.9 | 0.00 | 0.02 | 0.02 | 37 | 1007.7 |
| 20260505180533 | 83 | 129 | 2.6 | 13.9 | 0.00 | 0.02 | 0.02 | 41 | 1007.7 |
| 20260505180051 | 82 | 321 | 3.5 | 9.6 | 0.00 | 0.02 | 0.02 | 40 | 1007.9 |
| 20260505175533 | 83 | 271 | 3.5 | 8.7 | 0.00 | 0.02 | 0.02 | 40 | 1007.9 |
| 20260505175032 | 83 | 120 | 1.7 | 8.7 | 0.00 | 0.02 | 0.02 | 41 | 1007.9 |
| 20260505174557 | 82 | 302 | 1.7 | 8.7 | 0.00 | 0.02 | 0.02 | 40 | 1007.9 |
| 20260505174033 | 83 | 84 | 2.6 | 8.7 | 0.00 | 0.02 | 0.02 | 43 | 1008.0 |
| 20260505173534 | 82 | 94 | 2.6 | 10.4 | 0.00 | 0.02 | 0.02 | 42 | 1008.0 |
| 20260505173041 | 82 | 349 | 3.5 | 10.4 | 0.00 | 0.02 | 0.02 | 45 | 1008.0 |
| 20260505172535 | 82 | 72 | 1.7 | 7.0 | 0.00 | 0.02 | 0.02 | 46 | 1008.1 |
| 20260505172033 | 82 | 281 | 1.7 | 8.7 | 0.00 | 0.02 | 0.02 | 42 | 1008.1 |
| 20260505171549 | 82 | 114 | 2.6 | 8.7 | 0.00 | 0.02 | 0.02 | 44 | 1008.0 |
| 20260505171033 | 82 | 227 | 2.6 | 9.6 | 0.00 | 0.02 | 0.02 | 46 | 1008.1 |
| 20260505170531 | 81 | 141 | 3.5 | 9.6 | 0.00 | 0.02 | 0.02 | 46 | 1008.2 |
| 20260505170046 | 81 | 232 | 2.6 | 6.1 | 0.00 | 0.02 | 0.02 | 46 | 1008.4 |
| 20260505165533 | 81 | 50 | 1.7 | 10.4 | 0.00 | 0.02 | 0.02 | 46 | 1008.4 |
| 20260505165032 | 81 | 253 | 3.5 | 10.4 | 0.00 | 0.02 | 0.02 | 43 | 1008.4 |
| 20260505164541 | 81 | 253 | 1.7 | 10.4 | 0.00 | 0.02 | 0.02 | 49 | 1008.6 |
| 20260505164032 | 80 | 295 | 0.9 | 10.4 | 0.00 | 0.02 | 0.02 | 46 | 1008.7 |
| 20260505163532 | 80 | 22 | 4.3 | 10.4 | 0.00 | 0.02 | 0.02 | 44 | 1008.7 |
| 20260505163041 | 80 | 278 | 1.7 | 10.4 | 0.00 | 0.02 | 0.02 | 45 | 1008.8 |
| 20260505162532 | 80 | 94 | 3.5 | 10.4 | 0.00 | 0.02 | 0.02 | 46 | 1008.8 |
| 20260505162033 | 80 | 19 | 1.7 | 6.1 | 0.00 | 0.02 | 0.02 | 47 | 1008.9 |
| 20260505161550 | 80 | 217 | 2.6 | 9.6 | 0.00 | 0.02 | 0.02 | 51 | 1008.8 |
| 20260505161032 | 79 | 70 | 2.6 | 9.6 | 0.00 | 0.02 | 0.02 | 47 | 1008.9 |
| 20260505160535 | 79 | 120 | 2.6 | 7.0 | 0.00 | 0.02 | 0.02 | 48 | 1009.0 |
| 20260505153044 | 78 | 37 | 2.6 | 6.1 | 0.00 | 0.02 | 0.02 | 50 | 1009.3 |
| 20260505152534 | 77 | 326 | 0.9 | 6.1 | 0.00 | 0.02 | 0.02 | 51 | 1009.3 |
| 20260505152031 | 77 | 345 | 1.7 | 6.1 | 0.00 | 0.02 | 0.02 | 54 | 1009.4 |
| 20260505151542 | 76 | 119 | 1.7 | 7.0 | 0.00 | 0.02 | 0.02 | 53 | 1009.5 |
| 20260505151032 | 75 | 160 | 1.7 | 7.0 | 0.00 | 0.02 | 0.02 | 53 | 1009.6 |
| 20260505150532 | 75 | 273 | 2.6 | 6.1 | 0.00 | 0.02 | 0.02 | 54 | 1009.5 |
| 20260505140532 | 70 | 110 | 0.9 | 6.1 | 0.00 | 0.02 | 0.02 | 65 | 1010.3 |
| 20260505140108 | 70 | 252 | 1.7 | 6.1 | 0.00 | 0.02 | 0.02 | 63 | 1010.4 |
| 20260505125032 | 66 | 161 | 0.9 | 3.5 | 0.00 | 0.02 | 0.02 | 72 | 1010.6 |
| 20260505124547 | 66 | 145 | 0.0 | 1.7 | 0.00 | 0.02 | 0.02 | 75 | 1010.3 |
| 20260505124032 | 66 | 115 | 0.0 | 1.7 | 0.00 | 0.02 | 0.02 | 73 | 1010.4 |
| 20260505123531 | 65 | 128 | 0.0 | 0.9 | 0.00 | 0.02 | 0.02 | 76 | 1010.4 |
| 20260505123050 | 64 | 357 | 0.0 | 0.9 | 0.00 | 0.02 | 0.02 | 76 | 1010.5 |
| 20260505122532 | 63 | 0 | 0.0 | 0.9 | 0.00 | 0.02 | 0.02 | 78 | 1010.5 |
| 20260505122033 | 62 | 350 | 0.0 | 0.9 | 0.00 | 0.02 | 0.02 | 83 | 1010.5 |
| 20260505121542 | 62 | 0 | 0.0 | 1.7 | 0.00 | 0.02 | 0.02 | 84 | 1010.7 |
| 20260505121033 | 61 | 247 | 0.0 | 5.2 | 0.00 | 0.02 | 0.02 | 85 | 1010.6 |
| 20260505120533 | 61 | 147 | 0.0 | 5.2 | 0.00 | 0.02 | 0.02 | 84 | 1010.7 |
| 20260505120049 | 60 | 100 | 0.9 | 5.2 | 0.00 | 0.02 | 0.02 | 86 | 1010.3 |
| 20260505115531 | 59 | 52 | 0.0 | 0.9 | 0.00 | 0.02 | 0.02 | 89 | 1010.2 |
| 20260505115032 | 59 | 52 | 0.0 | 0.0 | 0.00 | 0.02 | 0.02 | 89 | 1010.2 |
| 20260505114556 | 58 | 0 | 0.0 | 0.0 | 0.00 | 0.02 | 0.02 | 92 | 1010.1 |
| 20260505114032 | 57 | 0 | 0.0 | 0.0 | 0.00 | 0.02 | 0.02 | 93 | 1010.1 |
| 20260505113531 | 56 | 0 | 0.0 | 0.9 | 0.00 | 0.02 | 0.02 | 95 | 1010.3 |
| 20260505113052 | 55 | 0 | 0.0 | 0.9 | 0.00 | 0.02 | 0.02 | 94 | 1010.2 |
| 20260505112533 | 54 | 0 | 0.0 | 0.9 | 0.00 | 0.02 | 0.02 | 95 | 1010.2 |
| 20260505112032 | 54 | 0 | 0.0 | 0.9 | 0.00 | 0.02 | 0.02 | 96 | 1010.2 |
| 20260505111541 | 53 | 71 | 0.0 | 1.7 | 0.00 | 0.02 | 0.02 | 96 | 1010.4 |
| 20260505111032 | 52 | 0 | 0.0 | 3.5 | 0.00 | 0.02 | 0.02 | 96 | 1010.4 |
| 20260505110533 | 51 | 62 | 0.9 | 3.5 | 0.00 | 0.02 | 0.02 | 96 | 1010.1 |
| 20260505102032 | 51 | 0 | 0.0 | 0.9 | 0.01 | 0.02 | 0.02 | 95 | 1009.8 |
| 20260505101550 | 51 | 0 | 0.0 | 0.9 | 0.01 | 0.02 | 0.02 | 94 | 1009.7 |
| 20260505101032 | 51 | 0 | 0.0 | 0.9 | 0.01 | 0.02 | 0.02 | 94 | 1009.6 |
| 20260505100531 | 51 | 81 | 0.0 | 0.9 | 0.02 | 0.02 | 0.02 | 94 | 1009.3 |
| 20260505100053 | 51 | 0 | 0.0 | 2.6 | 0.02 | 0.02 | 0.02 | 94 | 1009.5 |
| 20260505095531 | 51 | 0 | 0.9 | 2.6 | 0.02 | 0.02 | 0.02 | 94 | 1009.5 |
| 20260505095036 | 51 | 0 | 0.0 | 0.9 | 0.02 | 0.02 | 0.02 | 94 | 1009.8 |
| 20260505094542 | 51 | 0 | 0.0 | 0.9 | 0.02 | 0.02 | 0.02 | 93 | 1009.6 |
| 20260505094032 | 51 | 0 | 0.0 | 1.7 | 0.02 | 0.02 | 0.02 | 93 | 1009.6 |
| 20260505093532 | 51 | 0 | 0.0 | 1.7 | 0.02 | 0.02 | 0.02 | 93 | 1009.6 |
| 20260505093056 | 51 | 186 | 0.0 | 0.9 | 0.02 | 0.02 | 0.02 | 93 | 1009.6 |
| 20260505092532 | 51 | 0 | 0.0 | 1.7 | 0.02 | 0.02 | 0.02 | 92 | 1009.8 |
| 20260505092035 | 51 | 0 | 0.0 | 1.7 | 0.01 | 0.01 | 0.01 | 92 | 1010.1 |
| 20260505091553 | 50 | 338 | 0.0 | 1.7 | 0.01 | 0.01 | 0.01 | 91 | 1010.2 |
| 20260505091034 | 50 | 0 | 0.0 | 1.7 | 0.01 | 0.01 | 0.01 | 90 | 1010.1 |
| 20260505090535 | 50 | 326 | 0.0 | 1.7 | 0.00 | 0.00 | 0.00 | 89 | 1010.1 |
| 20260505090047 | 50 | 274 | 0.0 | 1.7 | 0.00 | 0.00 | 0.00 | 89 | 1010.1 |
| 20260505085535 | 50 | 0 | 0.0 | 2.6 | 0.00 | 0.00 | 0.00 | 89 | 1010.1 |
| 20260505085036 | 49 | 0 | 0.0 | 2.6 | 0.00 | 0.00 | 0.00 | 89 | 1010.1 |
| 20260505084546 | 49 | 0 | 0.0 | 2.6 | 0.00 | 0.00 | 0.00 | 89 | 1009.9 |
| 20260505084033 | 49 | 330 | 0.9 | 2.6 | 0.00 | 0.00 | 0.00 | 89 | 1009.9 |
| 20260505083537 | 49 | 272 | 0.0 | 1.7 | 0.00 | 0.00 | 0.00 | 89 | 1009.6 |
| 20260505083054 | 49 | 0 | 0.0 | 1.7 | 0.00 | 0.00 | 0.00 | 89 | 1009.6 |
| 20260505082535 | 49 | 254 | 0.0 | 1.7 | 0.00 | 0.00 | 0.00 | 89 | 1009.5 |
| 20260505082036 | 49 | 0 | 0.0 | 0.9 | 0.00 | 0.00 | 0.00 | 89 | 1009.3 |
| 20260505081548 | 49 | 0 | 0.0 | 0.9 | 0.00 | 0.00 | 0.00 | 89 | 1009.3 |
| 20260505081038 | 49 | 0 | 0.0 | 0.9 | 0.00 | 0.00 | 0.00 | 89 | 1009.2 |
| 20260505080538 | 49 | 0 | 0.0 | 0.9 | 0.00 | 0.00 | 0.00 | 89 | 1009.3 |
| 20260505080047 | 49 | 0 | 0.0 | 0.9 | 0.00 | 0.00 | 0.00 | 89 | 1009.3 |
| 20260505075535 | 49 | 0 | 0.0 | 0.9 | 0.00 | 0.00 | 0.00 | 88 | 1009.3 |
| 20260505075035 | 49 | 0 | 0.0 | 0.9 | 0.00 | 0.00 | 0.00 | 88 | 1009.3 |
| 20260505074545 | 49 | 0 | 0.0 | 0.9 | 0.00 | 0.00 | 0.00 | 88 | 1009.3 |
| 20260505074035 | 49 | 0 | 0.0 | 0.9 | 0.00 | 0.00 | 0.00 | 88 | 1009.3 |
| 20260505073535 | 49 | 0 | 0.0 | 0.9 | 0.00 | 0.00 | 0.00 | 88 | 1009.4 |
| 20260505073051 | 49 | 279 | 0.0 | 0.9 | 0.00 | 0.00 | 0.00 | 88 | 1009.3 |
| 20260505072534 | 49 | 326 | 0.0 | 0.9 | 0.00 | 0.00 | 0.00 | 88 | 1009.3 |
| 20260505072034 | 49 | 0 | 0.0 | 0.9 | 0.00 | 0.00 | 0.00 | 87 | 1009.3 |
| 20260505071558 | 49 | 0 | 0.0 | 0.9 | 0.00 | 0.00 | 0.00 | 87 | 1009.3 |
| 20260505071035 | 49 | 268 | 0.0 | 0.9 | 0.00 | 0.00 | 0.00 | 87 | 1009.4 |
| 20260505070535 | 49 | 270 | 0.0 | 0.9 | 0.00 | 0.00 | 0.00 | 87 | 1009.3 |
| 20260505070051 | 49 | 0 | 0.0 | 0.9 | 0.00 | 0.00 | 0.00 | 87 | 1009.3 |
| 20260505065534 | 49 | 0 | 0.0 | 0.0 | 0.00 | 0.00 | 0.00 | 87 | 1009.3 |
| 20260505065031 | 49 | 0 | 0.0 | 0.9 | 0.00 | 0.00 | 0.00 | 87 | 1009.2 |
| 20260505064543 | 49 | 0 | 0.0 | 0.9 | 0.00 | 0.00 | 0.00 | 87 | 1009.3 |
| 20260505064037 | 49 | 263 | 0.0 | 0.9 | 0.00 | 0.00 | 0.00 | 87 | 1009.3 |
| 20260505063532 | 49 | 302 | 0.0 | 0.9 | 0.00 | 0.00 | 0.00 | 87 | 1009.3 |
| 20260505063051 | 49 | 274 | 0.0 | 0.9 | 0.00 | 0.00 | 0.00 | 87 | 1009.5 |
| 20260505062535 | 49 | 0 | 0.0 | 1.7 | 0.00 | 0.00 | 0.00 | 87 | 1009.4 |
| 20260505062035 | 49 | 0 | 0.0 | 1.7 | 0.00 | 0.00 | 0.00 | 87 | 1009.5 |
| 20260505061550 | 49 | 0 | 0.0 | 1.7 | 0.00 | 0.00 | 0.00 | 87 | 1009.5 |
| 20260505061031 | 49 | 276 | 0.0 | 0.9 | 0.00 | 0.00 | 0.00 | 87 | 1009.5 |
| 20260505060533 | 49 | 0 | 0.0 | 0.9 | 0.00 | 0.00 | 0.00 | 87 | 1009.5 |
| 20260505060055 | 49 | 0 | 0.0 | 1.7 | 0.00 | 0.00 | 0.00 | 87 | 1009.4 |
| 20260505055537 | 49 | 0 | 0.0 | 1.7 | 0.00 | 0.00 | 0.00 | 87 | 1009.5 |
| 20260505055035 | 49 | 0 | 0.0 | 1.7 | 0.00 | 0.00 | 0.00 | 87 | 1009.5 |
| 20260505054546 | 49 | 326 | 0.9 | 1.7 | 0.00 | 0.00 | 0.00 | 87 | 1009.4 |
| 20260505054033 | 49 | 262 | 0.0 | 0.9 | 0.00 | 0.00 | 0.00 | 87 | 1009.6 |
| 20260505053532 | 49 | 276 | 0.0 | 0.9 | 0.00 | 0.00 | 0.00 | 87 | 1009.7 |
| 20260505053055 | 49 | 1 | 0.0 | 0.9 | 0.00 | 0.00 | 0.00 | 87 | 1009.5 |
| 20260505052534 | 49 | 271 | 0.0 | 0.9 | 0.00 | 0.00 | 0.00 | 87 | 1009.5 |
| 20260505052034 | 49 | 0 | 0.0 | 0.9 | 0.00 | 0.00 | 0.00 | 86 | 1009.5 |
| 20260505051604 | 49 | 271 | 0.0 | 0.9 | 0.00 | 0.00 | 0.00 | 86 | 1009.5 |
| 20260505051032 | 49 | 0 | 0.0 | 0.9 | 0.00 | 0.00 | 0.00 | 86 | 1009.5 |
| 20260505050534 | 49 | 283 | 0.0 | 0.9 | 0.00 | 0.00 | 0.00 | 86 | 1009.5 |
| 20260505041545 | 51 | 262 | 0.0 | 0.9 | 0.00 | 0.00 | 0.00 | 83 | 1009.4 |
| 20260505041034 | 51 | 307 | 0.0 | 0.9 | 0.00 | 0.00 | 0.00 | 83 | 1009.3 |
| 20260505040533 | 51 | 0 | 0.0 | 1.7 | 0.00 | 0.00 | 0.00 | 83 | 1009.2 |
| 20260505040055 | 51 | 0 | 0.0 | 1.7 | 0.00 | 0.00 | 0.00 | 83 | 1009.2 |
| 20260505035534 | 51 | 0 | 0.0 | 1.7 | 0.00 | 0.00 | 0.00 | 82 | 1009.2 |
| 20260505035031 | 51 | 357 | 0.0 | 1.7 | 0.00 | 0.00 | 0.00 | 82 | 1009.2 |
| 20260505034541 | 51 | 259 | 0.0 | 1.7 | 0.00 | 0.00 | 0.00 | 82 | 1009.3 |
| 20260505034032 | 51 | 329 | 0.0 | 1.7 | 0.00 | 0.00 | 0.00 | 82 | 1009.2 |